Flag for South Africa Weather past 2 weeks in Durban, South Africa

Now
68 °F

Partly sunny.


Feels Like: 68 °F
Forecast: 57 / 73 °F
Wind: 8 mph from Southeast

Location: King Shaka International Airport

Current Time: Oct 20, 2014 at 10:28:49 AM

Latest Report: Oct 20, 2014 at 10:00 AM


Visibility: N/A

Pressure: 30.15 "Hg

Humidity: 69%

Dew point: 57 °F

Location of DurbanLocation

Historic Weather in Durban — Graph

°F

Durban temperature yesterday

Maximum temperature yesterday: 72 °F (at 1:00 PM)
Minimum temperature yesterday: 57 °F (at 6:00 AM)
Average temperature yesterday: 65 °F

Past Weeks' High & Low Weather Summary

 TemperatureHumidityPressure
High86 °F (Oct 7, 10:00 AM)94% (Oct 7, 2:00 AM)30.36 "Hg (Oct 7, 2:00 AM)
Low54 °F (Oct 6, 6:00 AM)43% (Oct 7, 10:00 AM)29.71 "Hg (Oct 7, 2:00 PM)
Average66 °F73%30.04 "Hg
* Reported Oct 5 9:00 AM — Oct 20 9:00 AM, Durban, Weather by CustomWeather, © 2014

Note: Actual official high and low records may vary slightly from our data, if they occured in-between our weather recording intervals... More about our weather records

Advertising

Durban weather history for previous 24 hours

 ConditionsComfort  
Time TempWeatherWind HumidityBarometerVisibility
9:00 AM
Oct 20
70 °FBroken clouds.3 mph60%30.15 "HgN/A
8:00 AM68 °FPartly sunny.7 mph64%30.15 "HgN/A
7:00 AM66 °FPartly sunny.5 mph73%30.15 "HgN/A
5:00 AM63 °FPartly sunny.3 mph83%30.12 "HgN/A
4:00 AM64 °FPartly cloudy.2 mph78%30.12 "HgN/A
3:00 AM64 °FPartly cloudy.3 mph73%30.09 "HgN/A
2:00 AM64 °FPartly cloudy.5 mph73%30.09 "HgN/A
1:00 AM64 °FPartly cloudy.1 mph78%30.12 "HgN/A
12:00 AM64 °FPassing clouds.2 mph73%30.12 "HgN/A
11:00 PM
Oct 19
64 °FPartly cloudy.3 mph73%30.12 "HgN/A
10:00 PM64 °FPassing clouds.3 mph73%30.12 "HgN/A
9:00 PM64 °FPassing clouds.3 mph73%30.12 "HgN/A
8:00 PM64 °FPartly cloudy.3 mph73%30.12 "Hg6 mi
7:00 PM64 °FPartly cloudy.2 mph73%30.09 "HgN/A
6:00 PM68 °FPassing clouds.3 mph60%30.09 "HgN/A
5:00 PM68 °FPartly sunny.6 mph60%30.07 "HgN/A
4:00 PM70 °FPartly sunny.7 mph60%30.04 "HgN/A
3:00 PM70 °FScattered clouds.10 mph60%30.04 "HgN/A
2:00 PM72 °FScattered clouds.10 mph57%30.04 "HgN/A
1:00 PM72 °FScattered clouds.8 mph61%30.07 "HgN/A
12:00 PM70 °FPassing clouds.9 mph69%30.07 "HgN/A
11:00 AM70 °FScattered clouds.7 mph64%30.09 "HgN/A
10:00 AM68 °FPartly sunny.3 mph64%30.09 "HgN/A
Weather by CustomWeather, © 2014

See weather overviewHow to use our weather pages